Wind_Speed
17 18 16 13 10 11 12 13 15 15 16 17 17 17 11 8 8 13 7 9 11 11 11 11 10 11 11 13 20 23 24 27 25 23 22 22 23 26 29 30 30 32 34 34 34 34 34 35 36 35 36 36 36 36 36 37 39 41 43 44 46 47 49 51 51 50 50 48 47 51 53 53 49 41 37 37 34 30 26 22 25 37 38 30 28 27 25
18 19 19 16 14 12 12 13 14 13 15 18 19 18 15 14 14 13 9 11 12 11 12 12 13 16 17 18 22 21 21 24 24 24 25 25 26 28 30 30 32 34 34 32 32 32 33 33 33 33 32 31 31 31 32 34 35 37 39 39 41 43 45 47 48 48 48 45 45 48 51 54 53 48 45 41 35 36 37 32 34 42 38 29 28 27 25
14 16 16 16 17 17 16 17 16 14 13 14 15 13 12 13 13 10 9 10 9 9 10 11 11 12 11 11 13 16 22 25 23 23 26 26 28 29 29 31 34 35 33 31 31 31 31 31 30 29 28 26 27 28 30 32 33 35 37 38 38 40 41 43 44 43 43 43 43 44 46 49 50 47 46 41 36 37 39 38 38 38 32 29 29 26 24
9 11 13 15 16 17 19 20 19 15 13 12 11 8 7 10 10 7 6 7 7 7 6 7 7 5 6 10 12 18 25 24 21 25 28 28 30 31 30 32 36 35 31 30 30 29 28 27 25 24 24 24 26 28 30 32 33 34 35 36 36 36 37 39 38 37 38 39 39 38 38 37 36 37 40 41 39 38 37 38 40 38 32 30 29 26 24
5 7 10 12 13 13 13 14 16 16 14 12 11 9 9 11 10 8 7 8 7 4 3 5 8 8 8 9 10 14 19 20 21 25 27 26 26 27 30 33 35 34 31 29 28 27 25 24 23 23 24 24 25 26 27 28 28 30 31 31 32 33 34 35 34 33 33 34 32 29 27 27 29 33 39 43 43 42 42 43 44 41 37 34 31 28 25
6 6 5 5 9 10 8 7 12 16 16 17 16 12 10 12 10 5 4 6 5 4 5 7 7 6 6 7 9 12 14 16 20 23 23 22 20 19 21 24 26 27 28 27 27 27 26 25 23 21 19 17 16 16 17 19 22 24 26 28 29 30 31 32 32 30 29 28 26 23 22 25 27 28 34 42 45 46 48 48 45 42 39 36 34 30 25
5 3 1 5 8 8 3 1 5 11 13 17 17 10 6 8 9 5 5 7 6 5 7 6 2 2 3 3 5 10 12 14 17 18 19 20 20 18 16 14 18 23 25 26 25 24 22 19 14 9 6 3 2 2 5 9 13 17 20 23 25 26 27 29 29 27 26 26 25 24 23 23 22 23 27 36 43 46 48 50 48 46 39 34 35 34 27
4 2 3 5 4 3 1 1 3 4 5 9 10 5 2 5 7 7 8 9 6 3 4 4 3 5 6 3 2 5 9 12 13 14 14 13 15 17 16 14 19 23 19 15 12 11 10 10 11 12 12 11 10 9 7 4 4 7 12 16 19 21 23 25 25 25 26 27 27 26 22 19 21 24 27 33 39 41 43 47 49 46 39 35 36 33 28
3 4 5 4 4 4 3 2 3 2 2 5 8 8 6 5 5 6 7 7 5 3 3 5 9 12 9 3 4 7 5 9 12 13 12 10 10 12 13 14 17 17 16 18 15 14 17 20 20 19 18 16 14 12 9 6 3 2 5 8 11 14 17 20 22 23 25 27 27 26 22 20 21 23 24 29 34 35 38 42 43 41 37 34 33 30 29
2 4 4 4 6 7 3 2 3 5 5 5 6 6 5 4 3 6 7 6 5 5 5 8 12 11 5 1 3 8 5 4 8 10 11 11 10 10 11 12 15 19 28 32 29 26 26 25 23 22 20 18 15 12 10 7 4 2 3 5 6 9 12 15 18 20 23 24 24 23 21 20 19 17 17 19 21 25 31 35 36 36 33 30 30 30 30
3 4 5 5 6 4 1 5 8 8 8 8 6 7 6 3 1 3 5 5 5 7 9 10 10 6 4 3 2 7 5 3 4 7 11 12 12 13 16 21 25 30 35 37 33 29 27 25 23 21 20 19 17 14 11 8 6 5 4 3 3 5 8 10 13 16 18 19 20 20 19 16 15 15 14 15 18 22 28 31 32 33 32 31 32 32 30
3 2 4 5 4 1 4 7 10 12 11 7 5 8 6 2 2 1 5 6 6 10 13 12 6 2 4 5 1 4 8 10 9 13 19 21 23 27 30 31 33 35 37 36 32 28 25 23 22 19 17 18 17 13 10 7 6 5 5 4 3 4 6 8 10 13 14 14 15 17 17 16 16 17 16 18 22 24 26 28 29 30 31 33 34 32 28
3 2 3 4 3 1 4 10 15 13 8 3 6 6 2 4 4 4 6 8 10 13 15 14 10 8 10 12 11 13 19 20 19 21 26 30 32 34 34 34 34 35 35 32 29 26 23 21 20 18 17 17 16 12 9 7 6 5 5 5 5 5 6 8 10 11 12 13 15 19 19 18 19 20 19 22 23 20 21 24 26 27 30 31 30 28 25
3 1 2 5 3 3 9 19 17 8 3 3 4 3 3 6 8 10 11 10 14 21 24 24 22 20 22 27 29 31 32 30 27 27 30 35 37 35 32 30 29 31 31 28 26 24 21 20 19 17 17 17 15 12 9 8 7 6 4 6 7 6 7 8 9 11 12 14 19 24 23 20 20 20 19 20 19 16 18 22 24 24 26 25 23 21 19
2 1 2 4 3 3 15 19 10 2 1 1 7 8 7 9 12 14 16 15 17 23 28 29 29 29 29 33 36 37 36 35 33 32 32 33 35 34 32 29 26 26 25 22 20 20 20 19 18 17 16 16 14 12 9 8 6 4 3 6 6 6 8 8 9 11 14 17 22 25 23 20 19 18 17 17 17 17 17 19 20 20 20 18 17 16 14
1 1 1 2 3 8 15 12 3 4 6 9 10 9 10 12 14 17 19 20 20 23 25 26 29 32 34 34 34 33 33 32 31 31 30 30 31 30 29 27 23 20 17 16 15 16 17 15 13 11 9 9 9 8 7 7 6 4 5 8 9 9 10 9 10 14 17 20 22 24 22 20 19 18 16 15 16 17 17 16 16 15 15 16 15 13 12
2 1 1 4 7 10 12 9 7 7 13 17 13 11 13 15 19 23 24 25 26 27 28 30 32 34 34 33 32 30 29 27 26 25 25 25 25 23 21 20 18 15 14 13 12 11 11 9 6 5 3 3 5 5 5 7 8 7 9 12 13 12 11 11 13 17 20 22 23 24 23 22 21 19 16 14 14 16 17 17 16 14 15 16 15 12 11
3 2 3 5 8 9 11 10 9 7 11 16 17 18 18 19 23 28 28 28 29 27 28 30 32 31 31 30 28 26 24 22 21 20 19 20 20 20 19 19 18 16 14 13 11 9 8 7 7 6 4 4 4 3 4 5 7 9 11 13 14 11 11 13 16 19 22 25 25 25 25 23 20 17 15 14 15 16 17 17 17 17 18 17 15 12 11
4 2 2 3 7 8 10 8 7 7 10 18 22 23 23 24 27 29 28 28 28 27 28 29 28 27 27 26 25 23 20 18 17 15 15 15 15 16 16 16 15 15 13 12 10 8 6 6 6 5 3 2 1 3 4 4 6 10 11 11 10 9 11 14 16 19 23 26 27 27 26 23 19 15 13 14 17 19 20 19 20 20 19 16 14 12 11
2 3 6 3 9 9 7 3 4 6 11 20 26 27 28 28 29 29 28 28 28 28 28 29 28 27 26 25 24 23 20 18 16 15 14 14 12 12 12 12 12 12 11 10 8 8 6 5 4 3 2 1 1 3 4 4 5 8 10 9 9 10 12 14 16 19 23 26 27 27 26 23 20 18 16 16 18 19 21 21 20 18 15 12 10 10 10
3 5 9 6 7 6 3 3 7 9 13 22 29 32 32 31 30 30 29 28 28 28 27 27 27 27 25 22 22 21 18 16 15 14 13 13 11 11 10 10 10 10 9 8 8 8 8 7 5 4 3 2 1 1 3 4 5 8 10 9 9 10 13 15 17 19 22 25 27 27 25 22 21 21 20 18 17 19 20 20 19 16 12 9 9 9 9
4 5 10 8 4 2 2 3 7 11 15 22 29 31 30 30 29 28 29 29 28 27 25 25 25 25 22 19 18 18 17 14 13 12 12 11 10 9 8 8 8 8 7 6 6 6 6 6 6 5 5 4 3 1 3 4 6 8 8 8 10 11 12 15 17 19 21 24 25 25 23 22 23 23 22 19 19 20 19 18 17 14 10 8 9 10 9
4 7 11 8 5 8 9 7 6 8 12 18 26 29 28 27 26 24 25 26 27 27 26 25 24 24 22 18 16 16 16 13 11 11 10 9 8 7 5 5 5 5 5 4 4 4 4 5 6 5 4 4 3 2 3 4 6 7 9 10 9 9 9 12 14 16 18 20 21 21 21 22 23 23 20 19 20 21 19 18 16 12 9 9 10 10 10
6 10 13 11 11 14 13 9 6 9 12 17 23 25 25 26 25 24 24 24 24 25 25 24 24 23 21 18 17 17 16 14 12 11 9 8 7 5 4 5 5 5 4 3 2 3 4 5 5 4 4 4 4 4 5 6 8 10 11 10 8 6 6 10 12 13 15 16 17 18 20 21 22 21 18 17 17 19 19 18 15 11 10 10 10 10 10
12 17 20 21 22 20 16 14 15 16 17 20 23 22 21 23 24 24 24 23 22 21 21 21 20 18 17 16 16 15 15 14 12 11 9 8 7 5 4 4 4 4 4 3 2 4 6 6 5 5 4 3 4 5 7 9 11 12 11 10 8 6 7 10 13 14 15 15 16 18 19 20 21 20 18 16 17 17 17 17 15 13 12 12 12 12 12
22 27 27 26 25 22 19 19 20 20 21 24 25 24 23 22 22 21 21 20 18 17 17 17 16 14 13 12 12 12 11 11 10 9 9 9 8 8 7 5 3 3 3 3 3 5 6 6 5 4 4 4 4 6 8 10 12 12 10 9 8 8 8 11 14 15 15 15 16 16 16 17 20 22 22 21 20 17 15 15 14 13 12 12 13 13 14
24 27 27 22 18 18 20 19 17 19 23 24 23 24 23 21 21 20 19 17 16 15 16 16 14 13 12 11 10 9 8 7 7 8 9 9 9 10 9 7 5 2 1 2 4 6 7 6 6 4 4 4 6 8 10 13 15 14 12 12 12 10 10 12 15 16 18 17 15 13 14 17 19 19 18 17 15 12 10 10 10 9 8 9 10 12 15
28 28 27 21 15 15 18 19 17 18 20 19 19 19 19 18 18 19 18 17 15 14 15 14 13 12 12 12 12 10 9 8 7 8 9 9 9 9 8 8 6 4 2 2 5 7 7 7 7 6 6 6 8 11 14 17 17 15 12 12 10 8 7 9 12 15 16 15 13 12 13 14 12 11 11 12 11 11 10 10 8 7 7 8 10 12 15
26 26 26 22 16 14 14 14 15 16 16 15 15 16 15 16 18 19 18 16 14 14 15 14 13 13 13 13 13 13 13 11 10 10 10 10 10 8 7 7 7 5 3 0 4 7 9 9 9 8 8 8 11 14 17 18 15 11 9 8 6 3 4 7 10 11 13 13 12 12 13 12 11 11 12 12 12 11 10 8 6 6 8 9 11 13 16
21 22 21 18 15 12 12 12 13 13 13 12 14 15 16 16 18 18 16 14 14 14 13 12 11 11 11 11 12 12 13 12 12 12 12 11 11 9 7 6 6 5 4 1 2 6 10 12 12 12 11 13 16 18 17 15 12 7 5 7 8 6 6 8 9 9 9 9 9 10 10 11 12 13 13 11 9 8 7 5 5 7 9 11 13 15 16
18 18 18 15 11 11 11 10 9 10 11 12 14 16 16 17 17 16 14 13 13 12 11 11 10 10 10 10 10 10 11 11 12 13 13 12 11 9 7 6 5 5 4 1 2 5 10 14 16 17 17 18 20 20 17 14 12 9 7 9 11 10 8 7 6 6 5 5 6 7 8 10 11 10 8 6 6 6 5 5 6 9 11 13 14 15 15
15 14 13 11 9 7 7 7 7 9 12 14 15 17 17 17 16 15 14 13 13 12 11 10 10 10 10 10 10 10 10 10 11 11 12 11 10 9 7 7 7 6 5 3 3 5 8 13 19 22 21 21 22 21 17 14 12 10 10 11 12 10 8 6 4 4 4 5 6 5 5 5 6 6 6 6 6 6 6 8 9 10 10 11 13 14 13
11 8 6 6 6 5 5 6 8 11 13 15 16 16 15 15 15 14 14 13 12 12 11 11 11 11 10 10 10 10 10 10 10 9 10 9 8 7 7 7 8 9 8 6 5 5 8 11 18 23 24 24 23 22 20 16 11 9 11 13 12 10 7 4 2 0 1 2 3 3 5 7 8 8 8 8 8 8 10 11 11 10 9 9 12 13 12
6 5 5 6 6 5 5 7 10 12 14 16 17 16 17 17 17 16 15 15 14 14 14 14 13 13 12 11 11 11 11 12 11 10 9 8 7 7 6 6 7 9 10 9 7 7 8 10 15 21 26 27 23 18 16 13 11 11 12 13 12 10 7 4 1 1 2 2 3 5 6 8 8 8 9 10 10 11 11 11 10 9 9 11 13 13 12
9 8 8 6 5 5 7 9 11 12 13 15 16 17 17 17 17 16 16 16 16 16 15 15 15 15 14 13 11 11 11 11 11 10 9 8 7 5 4 3 4 7 9 10 9 9 9 10 12 17 24 28 24 16 11 9 11 14 16 16 14 11 7 4 2 0 1 3 5 6 7 8 9 10 11 11 10 10 10 9 9 10 11 12 14 14 13
9 8 7 6 6 7 9 10 11 11 13 14 15 15 16 16 16 16 15 15 14 14 13 13 13 13 13 12 12 11 11 10 9 9 8 6 5 3 0 1 2 5 8 9 9 9 10 10 10 13 19 23 22 17 14 12 13 14 16 15 13 10 6 3 1 1 3 5 7 8 8 8 9 10 10 9 8 8 8 9 10 11 12 12 13 13 13
10 9 9 9 10 11 11 11 11 11 12 13 14 14 15 15 15 15 16 15 14 12 12 12 12 12 13 12 12 11 10 8 8 8 8 7 5 3 4 5 5 5 7 9 10 10 10 10 9 10 13 14 13 12 13 12 11 11 11 9 8 7 5 1 1 3 5 8 10 10 10 9 9 8 8 7 7 7 8 9 10 12 13 12 12 12 13
11 10 11 12 12 12 12 12 11 10 11 12 13 13 14 14 14 14 15 16 15 14 14 13 13 13 13 13 12 11 10 10 10 11 11 11 10 8 7 7 7 7 10 15 17 16 15 15 14 14 15 16 14 14 13 11 10 11 8 4 3 4 4 3 5 7 10 11 11 11 10 10 9 8 7 7 6 7 8 9 9 9 10 11 11 11 12
12 12 12 11 11 12 12 11 10 10 10 11 12 12 12 12 12 13 14 15 16 16 16 15 15 15 15 15 15 14 14 13 13 14 15 14 13 11 9 9 10 10 14 19 21 19 17 15 14 13 12 10 9 8 7 6 7 7 4 3 4 7 8 8 8 10 10 10 10 9 8 7 6 6 5 5 6 7 8 9 8 8 8 9 10 10 11
14 13 13 12 12 12 12 11 10 10 9 9 10 11 11 11 12 13 13 14 15 16 17 17 17 16 16 16 16 16 15 14 14 14 14 14 14 12 12 14 14 13 12 13 13 11 9 7 7 6 5 6 7 7 8 8 7 5 4 6 8 9 9 8 8 8 8 7 7 6 5 5 4 4 4 5 6 7 8 8 8 7 8 8 10 11 12
15 14 14 14 14 13 13 12 11 10 9 9 10 10 10 10 11 12 12 12 13 14 16 17 17 17 17 18 17 16 15 15 14 13 12 11 11 12 13 15 14 11 10 9 7 6 6 7 7 7 8 9 9 9 10 10 9 7 8 8 8 8 7 7 7 7 7 6 5 4 4 4 4 4 5 6 7 8 8 8 8 8 9 9 10 11 11
14 14 13 13 13 13 13 13 12 11 10 10 10 10 10 10 10 10 11 11 11 12 13 14 15 15 16 16 16 17 17 17 16 15 14 14 13 13 12 13 12 11 10 10 9 9 10 11 11 12 13 13 13 12 11 11 9 8 8 7 7 7 7 7 7 7 7 6 6 5 5 5 6 6 7 8 8 8 9 10 10 10 10 10 10 10 11
13 13 12 12 13 12 12 12 12 12 12 12 11 11 11 10 10 9 10 10 10 11 12 13 14 14 14 14 14 15 15 16 16 16 16 17 16 14 12 11 11 10 9 10 11 11 12 12 12 12 12 12 11 10 10 8 7 6 6 6 6 7 7 7 7 7 7 7 7 7 7 7 8 8 8 8 8 9 11 12 12 12 13 13 13 12 12
12 11 11 11 11 11 11 11 11 11 11 12 12 11 11 11 11 11 10 10 11 11 12 11 12 13 14 13 13 13 13 13 13 14 14 15 14 12 11 10 10 9 9 10 11 12 11 12 12 12 11 10 9 8 7 6 5 5 5 5 5 6 6 6 6 7 6 7 7 7 7 6 6 6 5 4 5 6 8 10 12 13 15 16 16 16 16
10 9 9 9 9 9 9 10 10 10 9 10 10 11 11 12 12 12 11 11 11 12 12 11 11 11 11 12 11 11 10 10 11 11 11 11 11 10 10 10 10 9 10 10 10 10 10 10 10 10 9 8 7 6 5 4 4 3 3 4 4 4 5 5 6 6 6 6 6 6 6 6 5 4 3 3 4 5 6 8 10 11 13 15 16 17 18
7 7 7 6 6 7 8 8 9 8 7 7 8 9 10 10 11 11 12 12 12 12 12 11 11 11 11 10 10 9 9 8 8 9 9 8 8 7 7 7 7 8 8 8 8 8 8 8 8 8 8 7 6 4 3 3 2 2 2 3 3 4 4 5 5 5 5 5 5 5 5 4 4 4 4 5 7 8 9 9 10 11 12 13 14 15 17
4 4 4 3 3 5 6 7 7 7 7 7 8 9 9 9 9 10 11 11 12 13 13 12 11 10 10 10 10 9 8 8 7 7 7 6 5 4 4 4 4 5 6 6 7 7 6 6 6 6 6 6 5 5 4 2 2 2 2 2 3 4 5 5 5 5 4 4 4 4 4 5 5 6 7 8 8 9 10 11 10 10 11 13 14 13 13
2 2 2 2 2 2 3 4 5 6 6 7 8 9 8 8 8 8 9 9 10 10 11 11 11 11 11 11 11 10 9 8 7 6 6 6 5 4 2 1 1 3 4 5 5 6 5 5 5 6 6 6 6 5 4 4 3 2 2 2 3 5 6 6 6 5 5 4 4 5 6 6 7 8 8 8 9 9 10 11 11 10 11 12 13 13 11
1 1 2 3 3 4 4 3 4 5 5 6 6 7 7 7 7 7 8 8 8 8 8 8 8 9 9 10 10 11 10 9 7 6 6 6 5 5 4 3 3 3 3 5 5 6 6 5 5 5 6 6 7 7 6 6 5 3 3 2 3 5 6 7 7 7 7 6 6 7 7 7 8 8 8 9 9 9 9 10 10 10 10 11 12 12 11
1 1 2 3 4 6 6 5 4 4 4 5 5 6 6 7 7 7 7 7 8 8 7 6 6 6 7 7 8 9 9 9 9 8 7 7 7 7 6 6 6 5 5 6 6 7 7 7 7 7 7 7 8 8 8 8 8 7 6 6 5 6 7 7 8 9 9 9 9 9 9 9 9 9 10 10 10 9 9 9 10 9 9 10 10 10 10
1 0 1 2 3 5 6 5 4 4 4 4 5 5 6 6 7 8 8 9 9 9 9 8 8 8 8 8 9 10 10 10 10 11 10 10 9 9 9 9 8 8 8 8 8 9 9 9 9 9 9 10 10 10 10 10 10 10 10 9 9 9 9 9 10 10 10 10 11 11 12 12 11 11 11 12 11 10 9 9 10 9 8 8 8 8 9
1 1 0 0 1 3 4 4 3 4 4 4 5 5 6 6 7 8 9 10 10 11 11 11 11 11 10 10 11 12 12 13 14 14 13 13 12 12 11 11 11 11 10 10 10 10 10 11 11 12 12 12 13 13 12 12 12 12 12 12 12 12 12 12 12 12 13 13 13 13 13 13 13 13 14 14 12 11 10 10 10 9 9 9 9 9 9
Wind_Direction
220 225 222 203 197 212 212 215 215 201 192 195 205 221 211 160 206 236 196 173 211 214 203 208 215 220 221 226 233 236 238 241 242 238 228 219 214 212 211 213 214 215 217 217 219 222 223 224 227 229 230 233 236 240 242 243 243 245 247 249 249 248 246 244 243 243 242 238 233 231 229 230 232 231 230 226 214 211 219 226 244 256 255 249 247 248 248
216 221 223 213 206 213 213 213 212 205 200 198 201 211 203 191 218 231 194 187 209 211 211 214 216 223 227 230 237 238 238 238 233 225 219 215 213 213 212 213 215 217 216 216 219 221 223 225 227 229 231 234 238 241 243 244 246 248 249 251 253 250 246 244 243 243 243 241 237 234 230 228 229 229 228 228 226 225 227 233 246 248 244 243 247 245 244
223 222 223 219 217 221 224 224 217 207 205 207 211 215 201 195 213 219 195 199 215 214 216 221 224 228 231 236 239 236 236 234 224 218 217 215 216 218 214 213 217 217 215 216 219 221 223 226 228 231 234 237 241 245 246 247 248 248 249 252 253 250 245 244 244 244 244 243 240 236 232 227 226 227 226 229 238 241 234 234 240 239 236 241 244 240 239
236 228 226 225 220 222 229 232 225 209 198 204 217 217 194 192 203 205 197 211 228 224 217 229 237 228 217 225 230 233 237 234 224 221 222 220 222 222 215 214 218 218 214 214 217 219 221 224 229 233 236 239 242 245 245 246 248 249 250 253 253 249 246 245 245 244 244 244 243 237 231 225 224 228 229 229 236 241 235 234 239 239 239 241 239 235 235
276 264 248 233 221 221 228 229 226 217 203 200 209 205 193 198 200 198 206 222 230 210 168 211 234 229 224 235 243 243 243 240 232 231 229 225 227 227 220 217 218 215 211 212 216 217 218 220 223 227 231 236 242 246 250 253 255 255 256 256 254 251 248 246 245 245 245 246 241 229 222 227 234 238 236 233 234 236 234 234 236 235 237 239 236 231 229
296 296 278 231 224 227 223 211 217 220 211 204 208 209 202 201 200 198 217 228 223 188 180 207 222 218 228 257 270 264 256 245 240 240 238 235 236 236 229 224 221 216 212 213 216 217 217 218 221 227 234 241 251 260 266 268 265 262 260 258 255 253 250 247 246 246 245 242 230 216 223 239 244 238 231 229 232 232 231 231 229 225 228 234 235 230 225
297 312 222 218 235 237 230 186 209 220 221 213 210 210 200 198 202 213 238 234 224 201 201 212 208 155 193 235 270 269 258 246 243 245 244 243 243 246 246 234 220 216 215 218 221 222 222 221 219 213 204 203 239 297 295 283 274 268 264 261 259 257 253 249 247 244 241 237 227 223 232 238 232 225 224 227 231 231 229 229 226 220 220 228 232 227 222
284 288 235 240 272 298 323 40 131 161 197 197 195 197 189 195 205 215 228 236 237 217 210 217 181 162 163 144 6 306 261 240 239 242 245 249 249 251 254 232 211 209 209 211 218 215 198 175 147 127 116 103 87 71 54 21 322 285 272 266 264 261 256 251 247 244 242 241 238 235 234 232 228 231 233 233 233 233 231 230 227 221 219 228 232 226 216
271 282 269 264 292 284 238 176 131 124 154 173 187 199 191 179 198 212 226 249 257 232 207 187 171 163 158 141 9 349 297 235 227 227 223 223 229 239 241 224 206 188 154 136 137 139 134 128 119 107 96 85 76 68 61 53 39 294 267 263 262 260 256 252 249 248 247 247 245 241 241 243 240 237 235 232 232 232 232 231 228 223 222 230 234 225 215
287 292 289 275 269 257 202 106 9 334 307 273 238 213 181 157 190 207 214 236 232 198 166 157 162 160 150 144 344 348 339 225 216 214 200 192 202 214 207 187 170 150 134 129 130 129 122 114 105 93 84 77 69 59 49 35 10 317 268 261 260 257 257 256 253 252 251 249 248 248 248 246 236 225 222 224 225 227 228 227 225 221 222 229 230 222 218
278 285 292 279 264 261 28 6 342 325 309 299 265 216 190 160 154 192 194 209 205 177 156 149 154 155 132 126 356 349 18 105 172 181 162 151 150 150 146 141 136 131 127 124 122 120 113 105 96 88 78 69 61 52 42 24 354 324 294 273 264 258 257 258 256 254 252 250 250 247 238 224 208 198 199 206 213 220 223 223 221 220 224 229 226 220 221
263 256 284 273 255 291 14 347 327 319 314 304 229 205 189 112 52 131 166 175 169 150 138 128 117 91 113 127 21 19 75 97 121 134 128 125 127 128 127 126 125 123 121 119 118 115 108 99 91 83 73 61 54 50 41 21 356 326 294 266 243 241 245 250 253 251 248 245 239 226 209 193 188 191 199 212 221 224 224 221 220 220 222 223 220 220 228
261 215 267 281 267 86 9 330 321 319 311 252 202 203 167 81 72 88 127 151 148 129 117 106 92 80 90 98 93 88 94 99 107 116 117 117 120 123 122 120 120 121 121 118 116 111 101 92 85 76 65 58 54 53 42 20 3 335 288 242 220 222 230 239 246 245 239 230 213 198 188 185 191 200 213 227 229 223 214 211 213 215 216 217 220 226 236
273 229 271 290 267 88 4 333 321 309 258 206 167 146 99 85 85 88 99 118 119 109 103 102 104 101 92 88 87 88 91 94 98 105 114 118 117 116 113 112 116 124 124 117 109 103 92 84 79 71 64 63 59 48 32 16 2 342 285 223 209 217 223 232 242 239 229 215 197 190 191 197 205 214 226 230 222 209 204 209 214 217 218 218 222 230 239
256 216 271 282 254 359 347 334 319 281 264 144 123 120 102 78 77 86 91 95 101 104 105 106 105 101 92 84 83 84 86 87 88 93 103 110 110 107 105 106 112 120 118 105 95 91 86 83 79 71 66 64 56 42 26 9 356 333 261 214 204 211 217 223 233 230 221 208 198 198 206 216 224 231 233 223 211 205 207 212 216 218 219 218 220 227 236
229 204 268 308 301 324 333 331 339 77 97 117 119 112 101 89 87 92 91 89 91 98 104 105 101 98 94 88 83 81 80 80 81 84 89 95 98 98 98 99 100 100 93 81 75 77 81 81 76 68 61 51 46 46 29 360 341 303 244 222 214 214 212 211 218 220 213 207 206 211 219 228 235 237 229 215 211 214 219 223 225 222 217 213 212 219 228
257 174 88 339 319 322 337 355 21 64 108 118 106 92 99 100 99 99 97 94 92 90 92 94 94 94 94 92 88 85 81 77 76 76 78 82 84 82 80 81 80 76 72 68 61 63 74 83 82 78 69 30 33 35 3 332 311 280 247 225 214 208 205 206 212 213 209 209 215 220 225 233 241 240 231 225 226 228 232 237 237 225 211 205 206 211 220
217 134 72 345 328 337 354 11 23 50 104 112 101 96 98 98 101 103 102 100 97 92 89 89 90 92 94 94 92 90 86 80 75 72 73 74 72 69 66 66 64 60 57 54 51 55 72 85 89 86 69 37 26 357 313 290 267 247 228 215 208 204 205 209 211 211 211 214 220 223 227 237 246 243 236 243 250 247 241 235 224 210 203 200 201 207 220
179 145 91 322 314 329 342 358 28 53 92 106 105 102 100 99 102 104 104 103 102 97 93 92 91 92 93 93 93 92 89 85 80 77 78 75 67 62 62 62 62 58 52 49 53 64 74 82 91 94 80 41 340 271 256 239 229 224 217 212 211 209 208 209 211 216 218 219 220 223 227 236 243 237 235 252 261 253 239 222 207 198 194 194 200 212 224
154 145 144 226 282 295 315 1 79 79 93 104 105 103 101 100 100 100 102 103 101 98 97 98 97 93 90 90 90 89 86 87 85 80 78 76 71 66 64 64 66 65 60 57 59 64 70 80 93 102 114 137 230 243 231 212 209 216 219 222 222 216 211 211 215 221 222 222 224 225 229 238 241 232 233 251 254 240 222 209 198 192 191 197 214 225 227
96 116 136 170 252 273 309 87 111 112 109 106 102 100 98 96 96 96 95 93 93 93 95 97 96 92 88 87 89 88 85 85 83 79 76 73 71 70 67 65 63 59 56 56 59 60 64 72 79 79 79 78 67 241 229 215 209 216 223 224 217 210 209 212 219 223 224 227 228 228 232 242 241 233 236 242 231 213 204 198 194 193 195 206 222 222 226
139 138 144 155 178 153 103 97 111 117 115 107 103 100 98 96 95 93 92 91 89 88 87 88 88 87 83 81 84 87 86 82 78 76 74 72 71 68 63 61 59 52 48 54 60 63 70 80 85 83 76 72 73 137 217 218 212 212 209 199 192 197 206 214 220 223 225 227 230 232 238 241 237 234 237 229 208 199 198 195 194 199 208 219 225 226 233
103 124 142 140 103 107 131 151 135 113 103 101 102 102 101 99 97 94 93 92 90 87 85 83 84 86 85 83 82 83 83 80 76 73 70 71 74 75 74 79 77 68 67 72 73 80 97 105 105 97 89 88 94 130 191 195 190 185 178 172 174 187 203 211 215 219 224 228 231 231 232 231 229 230 229 215 203 202 203 200 203 216 229 229 227 230 232
72 103 124 114 96 109 131 144 123 96 91 95 98 98 96 96 95 92 90 89 87 87 85 82 82 83 83 83 82 80 78 75 72 70 69 70 74 80 92 106 106 98 93 93 109 137 140 132 121 106 100 109 124 141 156 163 165 166 166 165 164 172 196 206 208 211 216 221 221 219 219 223 226 224 219 214 213 212 212 214 219 225 229 228 228 230 234
100 106 112 109 107 112 116 112 104 100 99 100 99 96 95 95 93 90 88 85 83 82 80 78 78 78 76 74 73 71 70 67 63 61 63 63 62 65 75 89 101 106 103 101 140 162 156 141 126 113 112 131 145 147 151 157 158 159 163 169 171 178 190 192 191 195 203 208 211 213 216 219 220 219 222 229 232 228 228 231 231 227 228 230 230 231 237
105 109 111 109 107 109 111 108 105 108 112 110 107 105 102 96 91 88 83 79 77 76 75 73 71 69 68 66 63 59 57 55 50 48 46 43 40 40 42 47 66 101 114 117 144 158 151 141 136 132 131 134 131 134 145 150 147 145 152 161 167 175 182 183 185 190 194 194 195 201 211 222 230 236 241 242 242 241 241 238 234 232 235 235 233 236 241
102 108 108 102 93 93 100 100 99 106 111 109 106 104 100 94 92 90 85 81 77 75 73 70 64 60 56 51 47 46 42 35 32 31 30 27 25 22 21 23 27 38 94 138 161 164 157 154 156 152 144 139 131 134 142 145 141 141 145 146 143 142 151 165 172 174 175 179 188 204 221 235 242 242 236 230 227 224 218 216 219 226 235 239 242 246 248
89 92 94 91 77 73 86 93 93 93 93 90 89 90 90 89 87 83 80 79 75 69 66 60 50 43 38 31 26 24 22 19 15 11 10 11 11 8 5 6 10 15 34 156 175 174 174 179 180 172 161 153 148 148 148 147 146 146 146 144 140 139 154 171 177 181 189 204 220 224 218 218 217 205 191 186 182 178 182 193 205 220 238 249 252 251 252
80 83 86 88 85 77 77 79 76 70 69 73 77 75 73 76 75 71 70 69 63 57 55 48 38 32 27 19 14 12 10 8 4 359 355 353 352 351 348 346 352 1 7 211 189 189 192 194 192 188 180 168 162 160 155 152 153 154 154 160 174 199 204 195 193 198 207 215 214 201 191 189 185 177 170 166 166 172 185 200 215 235 251 256 254 253 255
81 87 87 88 91 87 71 58 56 57 58 62 64 60 56 57 60 61 60 55 48 47 45 38 32 30 24 19 17 13 7 2 356 352 350 347 343 338 330 323 327 341 356 15 196 205 204 202 202 200 189 174 167 165 161 161 168 174 182 195 201 195 182 183 186 186 189 190 186 182 180 177 172 167 163 163 172 188 207 224 243 258 261 259 254 252 253
85 89 88 85 87 86 79 70 66 65 57 50 48 47 43 41 42 44 40 33 29 31 27 19 17 18 18 19 17 11 5 357 349 344 343 342 337 330 318 301 296 308 325 353 189 207 208 209 209 201 187 178 175 174 174 183 194 197 196 195 189 180 176 182 184 178 173 167 160 156 159 163 166 167 171 185 207 221 232 247 260 265 267 263 256 249 246
88 86 88 90 89 90 95 95 83 68 58 50 47 45 41 37 35 31 24 18 13 8 1 356 355 356 360 4 5 2 359 354 347 341 337 334 329 320 302 276 261 269 281 275 223 203 205 214 213 202 190 185 184 184 189 200 207 207 200 188 179 174 171 163 155 153 151 147 144 141 150 174 192 210 228 239 241 244 250 257 259 262 266 261 250 243 240
101 90 93 107 115 118 114 95 72 60 53 48 46 44 40 37 35 29 23 18 13 5 359 355 351 348 347 348 348 347 346 344 343 341 334 327 321 312 295 269 247 241 245 250 238 206 198 213 217 208 197 192 193 198 204 208 206 202 191 177 167 169 171 155 128 181 180 163 183 217 231 229 226 230 239 249 258 262 261 258 256 258 257 247 238 236 237
132 120 120 127 133 123 94 69 55 47 42 37 35 33 30 29 28 25 21 17 13 11 9 6 3 359 354 349 344 341 341 342 344 346 340 332 326 320 307 285 256 238 229 228 227 213 201 208 216 212 203 199 199 205 209 206 200 193 183 169 163 169 173 162 146 317 339 320 277 257 243 234 233 239 248 257 261 259 254 250 248 247 242 237 235 235 236
124 121 119 122 117 91 71 62 54 45 39 34 32 32 31 29 25 22 18 13 9 6 5 3 3 3 2 1 359 356 354 353 352 351 347 340 336 334 318 284 259 240 224 215 211 209 205 205 212 215 212 209 208 210 210 206 197 188 182 180 181 182 178 169 164 151 335 298 276 267 254 245 246 252 255 257 254 247 241 241 240 237 236 238 239 237 235
110 111 108 100 83 69 62 58 53 47 42 42 43 43 39 34 31 28 24 17 11 6 4 4 7 11 16 20 21 18 14 9 5 2 359 352 348 356 35 180 198 206 203 192 180 183 194 201 209 216 216 217 221 225 227 225 212 195 189 189 185 173 162 160 156 354 316 279 271 274 267 258 257 257 255 254 250 241 239 242 242 240 240 240 237 233 231
102 99 91 81 72 67 62 57 54 51 50 53 55 51 45 42 41 37 33 30 26 23 24 24 27 29 32 32 30 28 26 25 24 22 22 22 30 55 91 107 116 135 152 150 145 150 163 170 178 187 191 195 201 202 200 201 193 177 172 175 168 155 149 156 308 304 280 268 269 272 267 263 262 260 257 258 255 248 247 247 247 247 245 239 232 230 232
88 82 77 71 65 63 62 59 59 62 63 63 57 49 46 48 46 40 37 38 40 43 45 45 45 45 44 43 41 41 42 45 44 41 40 41 46 57 79 96 106 117 125 126 126 128 132 137 145 150 152 153 153 154 156 163 164 154 148 148 163 169 188 231 250 252 253 255 261 263 261 261 261 261 262 263 256 250 250 249 246 246 245 240 235 232 232
80 76 73 68 63 60 59 59 61 65 65 60 51 46 48 50 47 43 43 44 44 47 52 55 57 58 58 56 55 54 54 55 54 52 50 49 46 52 75 100 112 115 118 122 125 125 124 131 144 151 153 158 164 161 162 183 202 206 222 242 205 194 206 225 235 239 244 249 252 252 252 254 255 255 258 254 244 245 251 250 246 246 247 245 243 239 236
74 71 67 64 61 57 54 53 55 56 53 47 43 44 48 50 47 47 50 47 43 44 50 56 61 61 59 59 61 60 57 56 56 55 54 53 52 62 87 106 112 109 105 113 125 131 131 141 163 180 194 210 218 214 211 213 218 218 206 185 180 190 209 226 232 236 241 243 243 242 242 244 246 246 244 239 236 240 246 249 251 251 251 251 251 248 245
68 65 61 60 57 53 49 48 47 48 48 47 46 48 51 50 48 49 52 49 43 41 46 54 59 60 60 63 66 65 62 61 61 58 56 58 66 79 93 102 107 105 97 96 108 123 131 136 140 136 131 132 139 147 158 164 162 156 159 169 180 194 208 215 219 223 223 220 218 219 221 228 237 239 236 236 239 243 247 252 257 258 258 259 259 255 250
68 64 61 59 55 52 51 50 50 51 54 54 54 55 54 49 47 49 52 51 46 43 47 52 57 60 64 66 66 64 63 65 67 68 68 73 81 88 91 93 96 98 99 99 104 113 121 125 126 126 127 130 131 132 137 144 151 159 170 180 188 193 196 198 198 196 191 188 191 198 204 213 224 232 237 240 246 250 255 259 262 262 263 264 261 256 252
70 69 67 65 61 58 56 54 54 56 57 56 57 58 54 50 49 52 54 52 49 47 48 50 52 55 59 63 64 64 62 62 65 69 73 77 83 87 90 91 92 93 99 106 114 120 126 129 131 131 131 132 134 136 136 140 146 154 163 173 178 180 183 182 179 179 182 185 189 196 204 212 220 230 237 244 252 260 264 267 266 265 265 265 261 257 253
71 71 72 70 66 63 60 55 53 53 54 53 54 55 53 52 53 53 52 50 47 44 46 49 50 52 54 58 64 69 68 65 65 68 71 76 83 88 92 96 98 101 109 119 125 128 131 133 134 134 134 134 135 135 134 135 138 144 155 167 171 171 173 175 177 180 182 182 184 189 194 199 208 217 227 241 264 278 282 281 280 276 272 268 264 259 254
72 72 73 72 67 61 56 50 47 48 48 47 50 51 51 50 49 47 45 42 39 39 42 46 47 48 51 54 59 65 68 68 68 68 70 75 82 89 98 108 114 117 124 131 135 137 138 138 138 139 142 145 147 145 141 138 141 146 157 170 175 177 179 180 182 183 181 179 180 183 185 189 199 212 233 273 303 310 306 303 304 301 291 280 272 265 258
75 74 74 70 62 56 51 44 40 41 43 45 47 47 45 42 42 42 40 36 32 32 35 38 40 42 43 45 48 52 54 56 57 59 63 69 75 82 96 112 126 136 142 146 147 146 146 147 149 153 157 159 162 162 159 159 164 173 183 192 200 200 193 185 182 180 179 179 185 192 201 215 234 258 283 301 310 312 308 307 313 317 309 296 285 274 265
82 84 81 73 59 54 51 43 37 36 38 41 40 38 35 34 36 37 36 34 32 30 29 30 32 33 33 33 34 35 36 37 38 40 43 49 56 63 78 99 123 144 157 163 164 162 160 158 159 165 173 179 181 182 183 187 200 215 219 216 215 207 193 182 177 175 178 189 203 218 237 256 269 280 289 298 304 308 307 305 306 311 311 304 294 284 272
94 79 67 46 18 17 29 34 33 31 29 27 24 24 29 38 42 38 33 32 32 32 31 29 28 27 26 25 24 23 23 23 20 14 11 13 14 12 11 39 154 165 173 182 185 183 179 179 180 185 192 199 202 203 205 209 217 234 245 236 219 206 197 189 185 185 191 207 223 235 247 259 267 275 283 289 293 297 300 300 300 304 309 307 299 289 278
75 49 40 24 359 346 350 6 17 18 16 14 10 10 19 33 39 35 31 28 26 25 27 29 29 26 24 22 20 18 16 16 13 6 356 348 343 338 330 312 283 247 223 218 220 217 211 206 204 207 213 218 221 221 221 220 223 231 240 240 229 218 213 212 214 217 221 226 235 245 254 263 269 274 278 282 285 287 290 291 292 296 303 304 298 288 278
43 23 16 6 353 347 350 359 5 1 355 353 351 354 2 11 13 10 9 7 4 4 4 6 5 5 4 3 2 360 358 358 356 352 345 336 325 316 310 303 293 282 270 257 247 239 232 228 227 229 233 236 237 236 235 236 238 239 240 242 244 243 240 240 241 244 247 250 254 261 268 274 278 282 286 287 286 283 284 285 285 287 296 303 300 290 279
76 59 12 15 13 7 6 5 359 346 337 335 335 337 344 352 357 357 356 355 353 352 349 346 343 342 340 339 338 338 335 332 330 328 324 319 312 305 301 298 292 285 278 271 262 253 246 242 239 238 240 243 245 244 243 244 247 248 249 251 253 255 258 260 262 264 267 268 269 271 273 274 276 282 290 292 286 280 279 284 286 283 283 291 297 294 285
124 175 240 311 18 19 11 359 339 324 320 321 323 325 329 335 339 342 343 343 344 345 344 342 342 341 339 336 335 336 332 327 322 318 314 310 304 297 291 289 288 287 284 279 271 263 256 251 247 246 247 250 252 253 254 255 256 257 259 259 259 260 261 263 264 266 268 270 271 272 272 272 273 278 285 288 283 272 267 274 283 285 281 281 285 289 288
Height
1411 1410 1411 1412 1415 1416 1415 1416 1417 1417 1419 1422 1424 1425 1423 1427 1434 1434 1431 1435 1437 1430 1425 1424 1422 1420 1420 1418 1415 1415 1415 1415 1416 1418 1419 1420 1421 1422 1424 1425 1427 1429 1431 1435 1438 1442 1446 1449 1452 1455 1458 1461 1463 1465 1468 1470 1473 1474 1476 1478 1479 1481 1484 1485 1487 1490 1491 1494 1499 1501 1502 1505 1510 1516 1520 1520 1522 1527 1530 1531 1533 1534 1535 1537 1537 1537 1538
1407 1406 1407 1407 1411 1413 1413 1413 1413 1413 1414 1415 1416 1417 1418 1421 1423 1421 1424 1430 1428 1422 1418 1415 1413 1413 1413 1412 1412 1412 1412 1412 1413 1415 1415 1415 1417 1418 1419 1421 1423 1425 1428 1432 1436 1439 1443 1446 1449 1452 1455 1457 1459 1462 1464 1467 1469 1471 1473 1474 1476 1478 1481 1482 1484 1486 1488 1491 1494 1495 1496 1500 1504 1508 1511 1514 1520 1524 1525 1526 1529 1530 1531 1534 1535 1535 1535
1407 1403 1403 1405 1407 1409 1410 1409 1408 1409 1412 1414 1414 1413 1414 1418 1420 1418 1420 1425 1423 1414 1409 1408 1409 1410 1412 1412 1412 1411 1409 1409 1410 1411 1411 1411 1413 1414 1416 1418 1419 1421 1426 1430 1433 1436 1439 1443 1446 1449 1452 1455 1457 1459 1462 1464 1466 1469 1470 1472 1474 1477 1479 1480 1482 1484 1486 1488 1490 1492 1494 1496 1499 1503 1508 1515 1521 1523 1523 1525 1527 1528 1529 1531 1532 1533 1533
1410 1401 1402 1405 1404 1406 1408 1405 1404 1406 1410 1413 1413 1412 1413 1415 1418 1420 1422 1425 1420 1409 1405 1407 1408 1409 1410 1410 1408 1407 1406 1406 1407 1407 1406 1407 1408 1410 1413 1415 1416 1419 1423 1427 1430 1433 1437 1440 1444 1447 1450 1453 1455 1457 1459 1462 1464 1467 1469 1470 1473 1476 1477 1478 1481 1482 1484 1486 1488 1491 1495 1499 1504 1509 1513 1516 1518 1519 1521 1522 1524 1527 1529 1529 1530 1530 1529
1412 1402 1401 1401 1403 1412 1414 1403 1398 1401 1403 1406 1408 1408 1408 1408 1411 1417 1420 1415 1408 1403 1405 1408 1408 1408 1408 1406 1405 1405 1404 1404 1405 1404 1404 1405 1406 1408 1410 1412 1413 1416 1420 1424 1427 1431 1435 1438 1442 1444 1447 1450 1453 1455 1458 1461 1463 1465 1467 1469 1471 1473 1475 1477 1478 1480 1483 1485 1488 1491 1496 1501 1505 1507 1508 1509 1510 1511 1512 1513 1514 1519 1524 1526 1526 1526 1525
1415 1405 1400 1403 1412 1419 1409 1392 1387 1391 1394 1398 1403 1403 1403 1402 1402 1405 1406 1402 1399 1400 1403 1404 1405 1405 1405 1405 1405 1404 1403 1402 1402 1402 1403 1405 1406 1408 1410 1412 1414 1418 1420 1424 1427 1429 1433 1436 1439 1443 1446 1449 1452 1454 1457 1459 1461 1463 1465 1467 1468 1470 1472 1474 1475 1477 1481 1483 1486 1488 1492 1495 1497 1498 1500 1502 1502 1503 1504 1504 1505 1508 1514 1518 1520 1521 1520
1413 1405 1405 1418 1422 1409 1392 1383 1382 1384 1386 1388 1393 1396 1396 1397 1398 1399 1399 1398 1396 1397 1398 1399 1400 1402 1403 1404 1403 1402 1401 1400 1400 1400 1401 1403 1405 1407 1409 1412 1415 1418 1420 1423 1426 1429 1432 1435 1439 1443 1446 1448 1451 1453 1455 1457 1459 1461 1463 1464 1466 1468 1470 1472 1473 1475 1477 1479 1481 1483 1486 1489 1491 1493 1495 1496 1496 1497 1498 1499 1499 1501 1506 1510 1513 1515 1516
1412 1410 1413 1421 1414 1394 1385 1387 1384 1383 1386 1388 1393 1399 1399 1396 1397 1398 1397 1395 1393 1394 1396 1398 1399 1401 1402 1402 1402 1401 1400 1398 1397 1398 1399 1401 1402 1404 1406 1409 1411 1414 1418 1423 1428 1431 1434 1436 1439 1442 1444 1446 1449 1451 1453 1455 1457 1459 1461 1462 1464 1466 1468 1470 1471 1473 1474 1475 1476 1479 1482 1486 1488 1488 1488 1489 1490 1492 1494 1496 1497 1500 1504 1507 1508 1509 1511
1412 1412 1411 1407 1402 1395 1391 1389 1385 1384 1386 1386 1389 1396 1397 1395 1394 1395 1395 1393 1392 1393 1395 1396 1398 1399 1400 1401 1401 1399 1398 1396 1395 1396 1396 1398 1400 1401 1404 1407 1410 1413 1417 1422 1428 1432 1434 1436 1438 1440 1442 1445 1447 1450 1452 1454 1456 1457 1459 1461 1462 1464 1466 1467 1469 1470 1471 1472 1474 1477 1480 1482 1483 1483 1484 1485 1487 1489 1492 1494 1497 1500 1503 1505 1506 1507 1509
1410 1412 1413 1410 1408 1403 1393 1387 1386 1385 1384 1381 1380 1387 1393 1393 1392 1392 1392 1392 1392 1392 1393 1395 1396 1397 1400 1404 1402 1399 1397 1395 1394 1394 1395 1396 1398 1400 1403 1407 1410 1413 1415 1419 1426 1431 1433 1435 1436 1438 1441 1443 1446 1449 1451 1453 1454 1456 1457 1459 1460 1462 1464 1466 1467 1469 1470 1471 1473 1475 1477 1478 1480 1481 1483 1484 1486 1487 1490 1492 1494 1498 1501 1503 1504 1505 1506
1410 1413 1418 1415 1409 1400 1391 1389 1388 1385 1384 1382 1381 1387 1393 1390 1388 1389 1389 1389 1389 1389 1389 1391 1393 1396 1403 1407 1403 1399 1396 1394 1393 1394 1394 1394 1397 1400 1403 1407 1410 1413 1415 1419 1424 1429 1431 1432 1434 1436 1438 1441 1444 1447 1449 1451 1453 1454 1456 1457 1459 1461 1463 1465 1466 1468 1469 1471 1472 1473 1475 1476 1478 1479 1480 1482 1484 1486 1488 1490 1492 1495 1498 1500 1501 1502 1503
1411 1415 1416 1410 1400 1394 1392 1391 1388 1385 1385 1384 1388 1395 1393 1385 1384 1386 1385 1385 1386 1386 1387 1388 1392 1397 1402 1404 1401 1399 1396 1395 1394 1394 1394 1395 1398 1401 1405 1409 1412 1414 1416 1420 1424 1428 1430 1430 1432 1434 1436 1438 1441 1445 1448 1450 1452 1453 1455 1457 1459 1460 1462 1463 1465 1466 1468 1470 1471 1472 1474 1476 1477 1478 1479 1480 1482 1484 1486 1487 1489 1491 1493 1496 1497 1498 1500
1411 1413 1413 1406 1395 1392 1393 1391 1387 1386 1386 1386 1390 1393 1387 1382 1384 1384 1383 1384 1385 1385 1385 1387 1393 1399 1401 1400 1400 1399 1396 1396 1396 1396 1396 1398 1401 1405 1409 1412 1414 1416 1419 1422 1425 1426 1427 1428 1430 1432 1434 1436 1439 1443 1446 1448 1451 1453 1454 1456 1458 1459 1460 1462 1463 1465 1466 1468 1470 1472 1474 1475 1476 1477 1478 1479 1480 1482 1483 1484 1486 1488 1490 1492 1494 1496 1497
1413 1412 1410 1406 1398 1392 1393 1391 1386 1385 1388 1387 1385 1384 1383 1383 1384 1383 1383 1385 1385 1385 1386 1388 1393 1399 1401 1400 1400 1400 1399 1399 1401 1401 1402 1402 1405 1409 1412 1415 1417 1419 1422 1425 1425 1424 1425 1426 1429 1430 1432 1434 1437 1441 1444 1447 1449 1451 1453 1455 1457 1458 1459 1460 1462 1463 1466 1467 1469 1471 1473 1474 1475 1476 1476 1477 1478 1480 1482 1483 1485 1486 1488 1490 1492 1494 1495
1415 1413 1411 1411 1406 1397 1394 1393 1388 1385 1387 1385 1381 1382 1384 1385 1384 1384 1387 1389 1388 1388 1388 1389 1392 1396 1399 1400 1401 1401 1402 1404 1406 1407 1408 1408 1409 1411 1413 1415 1419 1423 1425 1426 1425 1424 1424 1426 1427 1429 1431 1433 1436 1439 1443 1445 1447 1449 1451 1452 1454 1455 1456 1457 1459 1462 1464 1466 1468 1470 1471 1472 1473 1473 1474 1475 1477 1479 1481 1482 1484 1486 1487 1489 1490 1491 1492
1414 1415 1412 1411 1407 1399 1397 1397 1392 1388 1387 1386 1383 1383 1384 1385 1387 1388 1390 1392 1392 1390 1390 1392 1393 1394 1397 1399 1401 1403 1405 1407 1409 1410 1411 1411 1412 1413 1413 1415 1418 1422 1425 1426 1425 1425 1425 1426 1428 1429 1431 1432 1435 1438 1441 1443 1445 1447 1448 1450 1451 1451 1452 1453 1456 1460 1463 1464 1466 1468 1469 1470 1471 1471 1473 1474 1476 1478 1480 1481 1482 1484 1485 1486 1487 1488 1490
1411 1410 1407 1405 1403 1401 1399 1398 1394 1391 1390 1388 1387 1385 1385 1387 1390 1390 1391 1393 1395 1395 1394 1395 1395 1395 1397 1400 1402 1405 1407 1410 1412 1413 1413 1413 1414 1414 1415 1416 1417 1420 1423 1425 1426 1426 1426 1427 1428 1430 1430 1432 1434 1436 1439 1440 1442 1443 1445 1446 1447 1448 1449 1451 1454 1458 1460 1462 1464 1466 1468 1469 1469 1470 1472 1473 1475 1476 1478 1479 1480 1481 1482 1483 1484 1485 1487
1408 1404 1403 1403 1403 1403 1402 1399 1397 1395 1392 1390 1389 1389 1389 1390 1391 1392 1393 1395 1398 1399 1398 1397 1397 1399 1401 1402 1404 1406 1409 1412 1415 1416 1416 1415 1414 1415 1416 1417 1418 1419 1421 1423 1425 1426 1427 1427 1428 1429 1430 1431 1433 1435 1437 1438 1440 1441 1443 1445 1446 1447 1449 1451 1454 1457 1459 1461 1463 1464 1466 1467 1468 1470 1472 1473 1473 1474 1475 1476 1477 1479 1480 1481 1482 1483 1484
1405 1405 1404 1405 1405 1406 1405 1403 1401 1398 1395 1393 1392 1392 1393 1394 1394 1396 1397 1398 1400 1401 1400 1399 1401 1403 1404 1405 1406 1408 1410 1413 1416 1418 1418 1417 1415 1416 1417 1417 1418 1419 1421 1423 1424 1426 1426 1427 1427 1429 1430 1430 1432 1434 1436 1437 1439 1441 1443 1444 1446 1447 1448 1451 1454 1456 1458 1460 1461 1463 1464 1466 1467 1470 1471 1471 1471 1472 1472 1474 1475 1476 1478 1478 1479 1481 1481
1401 1401 1402 1405 1408 1408 1407 1405 1404 1403 1400 1397 1395 1395 1396 1397 1398 1399 1401 1402 1402 1402 1402 1402 1403 1404 1407 1408 1408 1410 1412 1415 1418 1418 1417 1416 1416 1416 1417 1417 1418 1419 1420 1422 1423 1423 1425 1426 1427 1428 1429 1429 1431 1433 1435 1436 1438 1440 1442 1444 1445 1447 1449 1451 1453 1454 1456 1458 1460 1461 1463 1464 1466 1468 1468 1469 1469 1469 1470 1471 1473 1475 1476 1477 1478 1479 1479
1400 1400 1402 1408 1412 1411 1408 1407 1407 1406 1404 1401 1398 1398 1399 1400 1401 1402 1403 1404 1404 1405 1405 1405 1403 1405 1409 1410 1410 1412 1414 1417 1419 1418 1416 1415 1415 1416 1416 1417 1417 1417 1418 1419 1420 1421 1422 1424 1426 1427 1428 1429 1430 1432 1435 1436 1436 1439 1441 1443 1445 1446 1448 1450 1452 1453 1456 1458 1459 1460 1461 1463 1464 1465 1465 1466 1467 1467 1468 1470 1472 1473 1474 1475 1476 1476 1477
1401 1400 1401 1407 1410 1410 1410 1411 1411 1410 1409 1405 1401 1400 1401 1403 1405 1405 1405 1406 1407 1407 1408 1407 1405 1406 1410 1413 1413 1414 1415 1418 1418 1417 1416 1415 1414 1415 1415 1416 1415 1415 1416 1418 1419 1420 1422 1423 1425 1426 1427 1429 1430 1432 1434 1435 1436 1438 1440 1442 1444 1446 1447 1449 1451 1453 1455 1456 1457 1459 1460 1461 1461 1462 1463 1464 1465 1466 1467 1469 1471 1472 1473 1474 1474 1475 1476
1398 1397 1399 1403 1405 1407 1412 1415 1414 1412 1411 1409 1406 1404 1405 1406 1407 1407 1407 1408 1409 1409 1409 1409 1408 1409 1412 1415 1416 1416 1416 1417 1417 1416 1415 1414 1414 1414 1415 1415 1414 1415 1416 1418 1419 1421 1422 1423 1425 1426 1427 1428 1430 1431 1433 1434 1436 1437 1439 1441 1443 1444 1446 1448 1450 1451 1453 1454 1456 1457 1459 1459 1459 1460 1462 1463 1464 1465 1466 1468 1469 1471 1471 1472 1473 1473 1474
1398 1398 1400 1402 1403 1407 1412 1415 1413 1411 1411 1411 1410 1409 1408 1408 1409 1409 1409 1410 1411 1411 1411 1411 1411 1412 1415 1417 1418 1417 1417 1417 1416 1416 1415 1415 1414 1415 1414 1414 1414 1414 1415 1417 1419 1421 1422 1423 1424 1425 1427 1428 1429 1431 1432 1433 1435 1436 1438 1440 1442 1444 1445 1446 1448 1450 1452 1453 1455 1456 1457 1457 1458 1460 1461 1463 1463 1464 1466 1467 1468 1469 1470 1470 1471 1472 1473
1399 1400 1401 1403 1405 1408 1413 1414 1413 1413 1413 1413 1413 1413 1413 1413 1412 1412 1412 1412 1413 1413 1412 1412 1413 1414 1416 1417 1418 1417 1417 1417 1417 1416 1415 1415 1415 1414 1413 1413 1412 1413 1414 1416 1418 1420 1422 1423 1424 1425 1426 1428 1429 1430 1431 1433 1434 1436 1438 1440 1441 1443 1444 1445 1446 1448 1450 1452 1454 1455 1456 1458 1459 1460 1461 1462 1463 1464 1465 1466 1467 1468 1468 1469 1470 1470 1471
1400 1401 1402 1405 1407 1411 1414 1415 1416 1417 1417 1417 1416 1416 1416 1416 1416 1415 1414 1415 1415 1414 1413 1414 1414 1415 1417 1417 1417 1417 1418 1417 1416 1415 1414 1414 1414 1413 1412 1412 1412 1412 1413 1415 1417 1419 1421 1422 1423 1425 1426 1428 1429 1430 1431 1432 1434 1436 1438 1440 1441 1442 1443 1444 1445 1447 1449 1451 1453 1455 1457 1459 1459 1459 1460 1461 1462 1463 1464 1465 1466 1467 1467 1467 1468 1469 1469
1401 1402 1403 1405 1410 1413 1414 1416 1418 1419 1419 1418 1417 1416 1415 1415 1416 1415 1415 1415 1416 1415 1415 1415 1416 1417 1417 1417 1417 1417 1418 1417 1416 1415 1414 1413 1413 1412 1412 1412 1412 1412 1413 1414 1415 1418 1419 1421 1423 1424 1426 1428 1429 1430 1431 1432 1434 1436 1438 1440 1441 1442 1444 1445 1446 1447 1449 1451 1453 1455 1457 1457 1457 1457 1458 1459 1460 1461 1462 1464 1465 1466 1466 1467 1467 1468 1468
1404 1404 1404 1407 1412 1415 1415 1417 1419 1418 1417 1416 1416 1415 1414 1414 1414 1414 1415 1415 1415 1415 1415 1415 1416 1416 1417 1417 1417 1417 1416 1416 1415 1414 1414 1413 1413 1413 1412 1413 1413 1413 1413 1414 1415 1416 1418 1420 1422 1424 1425 1427 1429 1430 1431 1433 1434 1436 1438 1440 1441 1443 1444 1446 1447 1449 1450 1452 1453 1454 1455 1455 1456 1456 1457 1458 1459 1460 1461 1463 1464 1464 1465 1465 1466 1466 1466
1408 1408 1408 1409 1413 1415 1416 1416 1417 1416 1416 1416 1416 1415 1414 1413 1413 1413 1414 1415 1414 1414 1414 1415 1416 1416 1416 1416 1416 1416 1415 1415 1414 1414 1414 1413 1413 1413 1413 1413 1414 1414 1414 1414 1415 1416 1417 1419 1421 1423 1425 1427 1428 1429 1431 1433 1435 1437 1438 1440 1442 1443 1444 1446 1447 1448 1449 1450 1451 1452 1453 1454 1455 1455 1456 1457 1458 1459 1460 1461 1461 1461 1462 1463 1464 1464 1464
1412 1411 1413 1414 1415 1416 1416 1416 1417 1418 1419 1418 1417 1414 1413 1413 1412 1413 1414 1415 1414 1415 1415 1415 1416 1416 1416 1416 1416 1416 1415 1415 1415 1414 1414 1414 1413 1413 1413 1413 1414 1414 1414 1415 1415 1416 1417 1419 1421 1423 1424 1426 1428 1429 1431 1433 1435 1436 1438 1440 1442 1443 1444 1446 1447 1448 1449 1450 1450 1451 1452 1452 1453 1454 1455 1456 1457 1457 1458 1458 1459 1460 1461 1461 1462 1462 1462
1415 1415 1417 1418 1418 1418 1418 1418 1419 1421 1420 1418 1415 1413 1412 1412 1412 1412 1413 1414 1414 1414 1415 1415 1416 1416 1416 1416 1415 1415 1415 1415 1414 1414 1413 1413 1413 1413 1413 1413 1413 1414 1414 1414 1415 1415 1417 1418 1420 1422 1424 1425 1427 1429 1430 1432 1435 1437 1439 1440 1441 1443 1444 1445 1447 1448 1449 1449 1450 1451 1451 1452 1453 1454 1455 1455 1455 1456 1456 1457 1458 1459 1459 1459 1459 1459 1459
1416 1417 1418 1419 1420 1420 1421 1421 1420 1420 1418 1416 1414 1413 1412 1412 1412 1412 1413 1413 1414 1414 1414 1414 1415 1415 1415 1415 1415 1414 1414 1414 1413 1412 1412 1412 1412 1412 1412 1412 1412 1413 1413 1414 1414 1415 1416 1418 1420 1421 1423 1425 1427 1428 1430 1432 1434 1436 1438 1439 1441 1442 1444 1445 1446 1448 1448 1449 1449 1450 1451 1452 1454 1454 1454 1454 1454 1455 1455 1456 1456 1457 1457 1457 1457 1457 1457
1419 1419 1420 1421 1421 1422 1422 1421 1419 1417 1416 1414 1414 1413 1413 1413 1413 1414 1414 1414 1415 1414 1414 1414 1414 1414 1414 1414 1414 1413 1413 1413 1412 1412 1411 1411 1411 1411 1410 1410 1411 1411 1412 1413 1414 1414 1415 1416 1418 1421 1423 1424 1426 1427 1429 1431 1433 1435 1437 1438 1440 1441 1443 1444 1445 1447 1447 1448 1448 1449 1450 1452 1453 1454 1453 1453 1453 1453 1454 1454 1454 1455 1455 1455 1455 1455 1455
1421 1422 1423 1423 1424 1424 1422 1419 1417 1415 1414 1413 1413 1412 1412 1412 1413 1413 1414 1414 1414 1413 1413 1412 1412 1412 1412 1412 1412 1412 1412 1412 1411 1411 1410 1410 1409 1409 1409 1409 1409 1409 1410 1411 1412 1413 1414 1415 1417 1420 1422 1423 1424 1426 1428 1430 1431 1433 1435 1436 1438 1439 1440 1442 1443 1445 1446 1447 1448 1449 1449 1450 1451 1451 1452 1452 1452 1452 1452 1452 1453 1453 1453 1453 1453 1453 1454
1423 1423 1424 1425 1425 1424 1421 1419 1417 1416 1415 1414 1414 1413 1413 1413 1413 1414 1414 1413 1413 1412 1412 1411 1411 1411 1411 1411 1411 1411 1411 1411 1411 1410 1410 1409 1408 1407 1407 1407 1407 1407 1408 1409 1410 1412 1413 1414 1416 1418 1420 1421 1423 1426 1429 1429 1430 1432 1433 1434 1435 1437 1439 1440 1441 1443 1445 1447 1449 1449 1449 1449 1449 1449 1449 1449 1450 1450 1450 1451 1451 1451 1451 1451 1451 1451 1452
1424 1424 1425 1425 1424 1423 1420 1419 1418 1417 1416 1416 1416 1416 1416 1416 1416 1416 1415 1415 1414 1413 1412 1412 1412 1411 1411 1411 1410 1410 1410 1411 1410 1410 1409 1407 1406 1405 1405 1405 1405 1405 1406 1407 1409 1411 1412 1413 1415 1416 1419 1420 1423 1426 1428 1428 1430 1432 1433 1433 1434 1436 1438 1440 1441 1442 1443 1445 1447 1448 1448 1447 1447 1447 1446 1447 1447 1448 1448 1449 1449 1449 1450 1449 1449 1449 1450
1425 1425 1425 1424 1423 1421 1420 1420 1419 1419 1418 1419 1419 1419 1419 1419 1419 1419 1418 1417 1416 1415 1414 1413 1413 1412 1412 1411 1411 1410 1410 1410 1410 1409 1408 1406 1405 1404 1404 1404 1404 1405 1406 1407 1409 1410 1412 1413 1414 1416 1418 1420 1422 1424 1426 1427 1429 1431 1433 1433 1434 1436 1437 1439 1440 1442 1442 1444 1445 1445 1445 1444 1444 1444 1444 1445 1445 1446 1446 1447 1447 1447 1447 1447 1447 1447 1448
1425 1424 1423 1423 1422 1422 1421 1421 1421 1421 1421 1421 1421 1421 1421 1421 1421 1421 1420 1419 1417 1416 1415 1414 1414 1413 1412 1412 1411 1411 1411 1410 1410 1409 1408 1406 1405 1404 1404 1405 1406 1406 1407 1407 1409 1411 1412 1414 1416 1417 1419 1421 1422 1424 1425 1426 1428 1429 1431 1433 1435 1436 1437 1438 1439 1441 1441 1442 1442 1442 1442 1442 1442 1442 1443 1443 1443 1444 1445 1445 1446 1446 1446 1445 1446 1446 1446
1425 1424 1424 1423 1423 1423 1423 1423 1422 1422 1422 1422 1423 1423 1423 1423 1422 1422 1421 1420 1419 1417 1416 1416 1415 1414 1414 1413 1412 1412 1411 1410 1409 1409 1408 1407 1406 1405 1405 1406 1407 1409 1410 1411 1412 1413 1415 1416 1418 1420 1421 1422 1423 1424 1426 1426 1426 1427 1429 1432 1434 1436 1438 1438 1439 1439 1440 1440 1440 1440 1440 1441 1441 1441 1441 1441 1442 1443 1444 1444 1445 1445 1444 1444 1444 1444 1445
1426 1425 1425 1425 1425 1424 1424 1424 1424 1424 1424 1424 1424 1424 1423 1423 1423 1422 1421 1421 1420 1419 1418 1417 1417 1416 1415 1414 1413 1413 1412 1411 1410 1409 1408 1407 1407 1406 1407 1408 1410 1411 1413 1414 1415 1416 1417 1418 1419 1420 1421 1422 1423 1424 1425 1426 1426 1427 1428 1431 1433 1436 1437 1437 1438 1438 1438 1438 1438 1438 1438 1438 1439 1439 1439 1440 1441 1442 1443 1443 1443 1443 1443 1442 1442 1443 1443
1427 1427 1426 1426 1426 1425 1425 1425 1425 1425 1425 1425 1425 1425 1424 1424 1423 1423 1422 1422 1422 1421 1420 1419 1418 1417 1416 1415 1414 1414 1413 1411 1410 1410 1409 1408 1409 1409 1410 1411 1412 1413 1414 1415 1416 1417 1418 1418 1419 1419 1420 1422 1423 1424 1425 1426 1427 1428 1429 1431 1433 1434 1435 1435 1435 1435 1435 1436 1436 1436 1436 1437 1437 1438 1439 1440 1441 1442 1442 1442 1441 1441 1441 1441 1441 1441 1441
1428 1428 1428 1428 1427 1427 1427 1427 1427 1427 1427 1427 1426 1426 1425 1425 1424 1424 1424 1424 1423 1423 1422 1420 1419 1418 1417 1416 1415 1415 1414 1413 1412 1411 1411 1410 1411 1412 1412 1413 1414 1415 1416 1417 1418 1418 1419 1419 1420 1421 1422 1423 1424 1425 1426 1427 1428 1429 1430 1431 1431 1432 1432 1433 1433 1433 1433 1434 1434 1435 1435 1436 1437 1438 1439 1439 1440 1440 1440 1440 1439 1439 1439 1439 1439 1439 1439
1430 1430 1430 1430 1430 1430 1430 1430 1430 1430 1429 1429 1428 1428 1427 1426 1426 1425 1425 1425 1424 1423 1422 1421 1420 1419 1418 1417 1416 1416 1415 1415 1414 1414 1414 1413 1414 1414 1415 1415 1416 1417 1417 1418 1419 1420 1420 1421 1422 1423 1423 1424 1425 1426 1427 1428 1428 1429 1429 1430 1430 1430 1431 1431 1431 1431 1432 1433 1433 1434 1434 1435 1436 1437 1437 1438 1438 1438 1438 1437 1437 1437 1437 1437 1437 1437 1437
1432 1432 1432 1432 1432 1432 1432 1432 1432 1432 1431 1430 1430 1429 1428 1428 1427 1426 1426 1425 1425 1424 1423 1422 1421 1420 1419 1419 1418 1417 1417 1417 1417 1417 1417 1416 1416 1417 1417 1417 1418 1418 1419 1419 1420 1421 1422 1422 1423 1424 1424 1425 1426 1426 1427 1428 1428 1428 1429 1429 1429 1429 1429 1430 1430 1430 1431 1431 1432 1433 1433 1434 1435 1435 1436 1436 1436 1436 1435 1435 1435 1435 1434 1434 1434 1434 1435
1433 1433 1433 1433 1433 1434 1434 1434 1433 1433 1432 1431 1430 1430 1429 1428 1428 1427 1426 1425 1425 1424 1423 1422 1422 1421 1421 1420 1420 1420 1420 1419 1419 1419 1419 1419 1419 1419 1419 1419 1420 1420 1421 1421 1422 1422 1423 1423 1424 1424 1425 1425 1426 1426 1427 1427 1427 1428 1428 1428 1428 1428 1429 1429 1429 1429 1430 1430 1431 1431 1432 1432 1433 1433 1433 1433 1433 1433 1433 1433 1433 1432 1432 1432 1431 1431 1432
1435 1435 1435 1435 1435 1435 1435 1434 1434 1433 1433 1432 1431 1430 1430 1429 1428 1427 1427 1426 1425 1424 1424 1423 1423 1422 1422 1422 1421 1421 1421 1421 1421 1421 1420 1420 1421 1421 1421 1421 1421 1422 1422 1422 1422 1423 1423 1423 1424 1424 1425 1425 1426 1426 1426 1426 1427 1427 1427 1427 1427 1427 1428 1428 1428 1428 1429 1429 1429 1430 1430 1431 1431 1431 1431 1431 1431 1431 1431 1430 1430 1430 1430 1429 1428 1428 1429
1436 1436 1436 1436 1436 1436 1435 1435 1434 1434 1433 1432 1432 1431 1430 1430 1429 1428 1428 1427 1426 1425 1425 1424 1424 1423 1423 1423 1423 1423 1422 1422 1422 1422 1422 1422 1422 1422 1422 1422 1422 1422 1423 1423 1423 1423 1423 1423 1424 1424 1424 1425 1425 1425 1425 1425 1426 1426 1426 1426 1426 1426 1426 1427 1427 1427 1427 1428 1428 1428 1429 1429 1429 1429 1429 1429 1429 1429 1428 1428 1428 1428 1427 1426 1426 1425 1425
1436 1437 1437 1436 1436 1436 1436 1435 1435 1434 1434 1433 1433 1432 1432 1431 1430 1430 1429 1428 1428 1427 1426 1425 1425 1425 1424 1424 1424 1423 1423 1423 1423 1423 1423 1423 1423 1423 1423 1423 1423 1422 1423 1423 1423 1423 1423 1423 1423 1423 1424 1424 1424 1424 1424 1424 1424 1425 1425 1425 1425 1425 1425 1426 1426 1426 1426 1426 1426 1426 1427 1427 1427 1427 1427 1427 1427 1426 1426 1426 1426 1425 1425 1424 1423 1423 1423
1436 1437 1437 1437 1436 1436 1436 1435 1435 1435 1434 1434 1433 1433 1432 1432 1431 1431 1430 1429 1429 1428 1427 1427 1426 1426 1425 1425 1424 1424 1423 1423 1423 1423 1423 1423 1423 1423 1423 1423 1422 1422 1422 1422 1422 1421 1421 1421 1422 1422 1422 1422 1422 1423 1423 1423 1423 1424 1424 1424 1424 1424 1424 1425 1424 1424 1425 1425 1425 1425 1425 1425 1425 1424 1424 1424 1424 1424 1424 1424 1423 1423 1423 1422 1421 1421 1420
1436 1436 1436 1436 1436 1436 1435 1435 1435 1435 1434 1434 1434 1433 1433 1432 1432 1431 1430 1430 1429 1428 1428 1427 1427 1426 1426 1425 1425 1424 1424 1423 1423 1423 1423 1422 1422 1422 1422 1422 1421 1421 1421 1421 1420 1420 1420 1420 1420 1420 1421 1421 1421 1421 1421 1422 1422 1422 1422 1423 1423 1423 1423 1423 1423 1423 1423 1423 1423 1422 1422 1422 1422 1422 1422 1422 1421 1421 1421 1421 1421 1421 1420 1420 1419 1418 1418
1436 1436 1436 1436 1436 1436 1435 1435 1435 1434 1434 1433 1433 1433 1432 1432 1431 1431 1430 1430 1429 1428 1427 1427 1427 1426 1426 1425 1425 1424 1424 1423 1423 1422 1422 1421 1421 1420 1420 1420 1420 1419 1419 1419 1419 1418 1418 1418 1418 1419 1419 1419 1419 1419 1420 1420 1420 1420 1421 1421 1421 1421 1421 1421 1420 1420 1420 1420 1420 1420 1420 1420 1420 1420 1419 1419 1419 1419 1419 1418 1418 1418 1418 1418 1417 1417 1417
1436 1436 1436 1436 1435 1435 1434 1434 1434 1433 1433 1433 1433 1432 1432 1431 1431 1430 1430 1429 1428 1427 1427 1426 1426 1425 1425 1424 1424 1423 1423 1422 1421 1421 1420 1420 1419 1419 1418 1418 1417 1417 1417 1417 1416 1416 1416 1416 1416 1416 1417 1417 1417 1417 1417 1418 1418 1418 1418 1418 1418 1418 1418 1418 1418 1418 1418 1418 1417 1417 1417 1417 1417 1417 1417 1417 1416 1416 1416 1416 1416 1416 1416 1416 1415 1415 1415